This is the latest recevied weather packets stored in our database for station/object CA3EVY-3. If no packets are shown the sender has not sent any weather packets the latest 10 day(s).
| Time | Temp. | Humidity | Pressure | Rain* | Wind** | Luminosity | Snow |
|---|---|---|---|---|---|---|---|
| 1777420805 | 18.89° C | 43% | 919.8 hPa | - | - | - | - |
| 1777419904 | 18.89° C | 43% | 920.1 hPa | - | - | - | - |
| 1777419005 | 18.89° C | 42% | 919.8 hPa | - | - | - | - |
| 1777418103 | 19.44° C | 42% | 919.8 hPa | - | - | - | - |
| 1777417204 | 19.44° C | 41% | 919.9 hPa | - | - | - | - |
| 1777416303 | 19.44° C | 41% | 920 hPa | - | - | - | - |
| 1777415404 | 20° C | 39% | 919.6 hPa | - | - | - | - |
| 1777414504 | 20.56° C | 39% | 919.5 hPa | - | - | - | - |
| 1777413610 | 21.11° C | 35% | 919.5 hPa | - | - | - | - |
| 1777412703 | 21.67° C | 35% | 919.2 hPa | - | - | - | - |
| 1777411804 | 22.22° C | 32% | 918.9 hPa | - | - | - | - |
| 1777410903 | 23.33° C | 32% | 918.8 hPa | - | - | - | - |
| 1777410004 | 23.89° C | 32% | 918.7 hPa | - | - | - | - |
| 1777409103 | 23.89° C | 32% | 918.7 hPa | - | - | - | - |
| 1777408203 | 24.44° C | 31% | 919 hPa | - | - | - | - |
| 1777407304 | 24.44° C | 31% | 919 hPa | - | - | - | - |
| 1777406404 | 24.44° C | 30% | 918.8 hPa | - | - | - | - |
| 1777405504 | 24.44° C | 30% | 918.9 hPa | - | - | - | - |
| 1777404603 | 24.44° C | 30% | 918.8 hPa | - | - | - | - |
| 1777403703 | 24.44° C | 30% | 918.7 hPa | - | - | - | - |
| 1777402804 | 23.89° C | 31% | 918.7 hPa | - | - | - | - |
| 1777401904 | 23.89° C | 31% | 918.7 hPa | - | - | - | - |
| 1777401003 | 23.33° C | 30% | 918.8 hPa | - | - | - | - |
| 1777400104 | 23.33° C | 30% | 918.9 hPa | - | - | - | - |
| 1777399204 | 22.78° C | 31% | 918.9 hPa | - | - | - | - |
* Rain since midnight (hover to see other rain measurements)
** Current wind speed in m/s (hover to see current wind gust speed)